#timestamp,LO_Frequency,Hit,StdDev 
1639090815.3,286047001.2,N
1639090835.1,286046998.3,N
1639090855.9,286046999.0,N
1639090875.7,286046998.7,N
1639090895.5,286047000.8,N
1639090915.4,286047000.9,N
1639090935.2,286046998.7,N
1639090955.1,286046998.2,N
1639090956.0,286046998.2,N
1639090975.8,286046998.9,N
1639090995.6,286046998.7,N
1639091015.5,286047000.8,N
1639091035.3,286046999.9,N
1639091055.2,286047002.3,N
1639091075.9,286046999.8,N
1639091095.7,286047002.2,N
1639091115.6,286047001.1,N
1639091135.4,286047001.2,N
1639091155.2,286047000.6,N
1639091175.1,286046999.8,N
1639091176.0,286046999.8,N
1639091195.8,286047000.2,N
1639091215.7,286047000.6,N
1639091235.5,286047000.1,N
1639091255.3,286047000.9,N
1639091275.2,286047002.7,N
1639091295.0,286047001.1,N
1639091295.9,286047001.1,N
1639091315.7,286046998.2,N
1639091335.6,286047000.3,N
1639091355.4,286046998.7,N
1639091375.3,286046998.3,N
1639091395.1,286046998.3,N
1639091415.8,286046999.3,N
1639091435.7,286046996.8,N
1639091455.5,286046994.9,Y
1639091475.4,286046995.3,P
1639091495.2,286046997.5,N
1639091515.0,286046997.6,N
1639091515.9,286046997.6,N
1639091535.8,286046997.7,N
1639091555.6,286046995.4,Y
1639091575.5,286046997.2,P
1639091595.3,286046996.6,P
1639091615.1,286046998.4,P
1639091635.9,286046998.3,N
1639091655.7,286046998.3,N
1639091675.6,286046999.3,N
1639091695.4,286046998.9,N
1639091715.2,286046999.3,N
1639091735.1,286046999.6,N
1639091736.0,286046999.6,N
1639091755.8,286046996.5,Y
1639091775.7,286046998.2,P
1639091795.5,286046998.1,P
1639091815.3,286046998.1,P
1639091835.2,286047001.2,Y
1639091855.0,286047001.8,P
1639091855.9,286047001.8,N
1639091875.8,286047004.4,N
1639091895.6,286047004.2,N
1639091915.4,286047003.5,N
1639091935.3,286047005.4,N
1639091955.1,286047003.2,N
1639091975.8,286047001.4,N
1639091995.7,286047001.5,N
1639092015.5,286047001.5,N
1639092035.4,286047004.3,N
1639092055.2,286047002.1,N
1639092075.0,286047002.3,N
1639092075.9,286047002.3,N
1639092095.8,286047001.5,N
1639092115.6,286047001.6,N
1639092135.4,286047001.5,N
1639092155.3,286047004.3,N
1639092175.1,286047003.7,N
1639092195.9,286047003.1,N
1639092215.7,286047004.8,Y
1639092235.5,286047001.5,P
1639092255.4,286047001.6,N
1639092275.2,286047002.8,P
1639092295.0,286047002.0,Y
1639092295.9,286047002.0,P
1639092315.8,286047000.2,P
1639092335.6,286047000.5,N
1639092355.5,286047000.4,N
1639092375.3,286046998.7,N
1639092395.1,286046998.4,N
1639092415.9,286047011.9,Y
1639092435.7,286046997.0,P
1639092455.5,286046998.0,N
1639092475.4,286046995.3,P
1639092495.2,286046997.1,N
1639092515.1,286046997.7,N
1639092516.0,286046997.7,N
1639092535.8,286046999.2,N
1639092555.6,286047000.8,N
1639092575.5,286046998.3,N
1639092595.3,286047000.4,N
1639092615.2,286047000.8,N
1639092635.9,286046998.2,N
1639092655.7,286047001.1,N
1639092675.6,286047000.7,N
1639092695.4,286046998.5,N
1639092715.2,286046998.6,N
1639092735.1,286047001.0,N
1639092736.0,286047001.0,N
1639092755.8,286047000.6,N
1639092775.7,286047000.0,N
1639092795.5,286047002.2,N
1639092815.3,286047001.9,N
1639092835.2,286047002.6,N
1639092855.0,286046999.8,N
1639092855.9,286046999.8,N
1639092875.8,286047000.6,N
1639092895.6,286047000.4,N
1639092915.4,286047002.7,N
1639092935.3,286046999.8,N
1639092955.1,286047000.6,N
1639092975.8,286047000.3,N
1639092995.2,286047002.4,N
1639093015.0,286047000.2,N
1639093015.9,286047000.2,N
1639093035.7,286047002.8,N
1639093055.6,286047000.1,N
1639093075.4,286046999.9,N
1639093095.3,286047002.8,N
1639093115.1,286047000.4,N
1639093116.0,286047000.4,N
1639093135.8,286047000.4,N
1639093155.7,286046999.8,N
1639093175.5,286047000.6,N
1639093195.3,286046998.6,N
1639093215.2,286046999.2,N
1639093235.0,286046998.4,N
1639093235.9,286046998.4,N
1639093255.8,286046998.9,N
1639093275.6,286046998.4,N
1639093295.4,286047000.5,N
1639093315.3,286047000.1,N
1639093335.1,286047000.1,N
1639093355.9,286047002.8,N
1639093375.7,286047002.8,N
1639093395.5,286047002.3,N
1639093415.4,286047002.4,N
1639093435.2,286047001.9,N
1639093455.0,286047002.3,N
1639093455.9,286047002.3,N
1639093475.8,286047002.4,N
1639093495.6,286047002.5,N
1639093515.5,286047002.1,N
1639093535.3,286047002.1,N
1639093555.1,286047003.5,N
1639093575.9,286047003.8,N
1639093595.7,286047002.5,N
1639093615.5,286047002.7,N
1639093635.4,286047000.0,N
1639093655.2,286046999.7,N
1639093675.1,286047000.1,N
1639093676.0,286047000.1,N
1639093695.8,286047002.4,N
1639093715.6,286047001.4,N
1639093735.5,286047004.1,N
1639093755.3,286047002.0,N
1639093775.2,286047001.8,N
1639093795.9,286047003.9,N
1639093815.7,286047003.4,N
1639093835.6,286047004.3,Y
1639093855.4,286047001.5,P
1639093875.2,286047003.9,P
1639093895.1,286047002.5,N
1639093896.0,286047002.5,N
1639093915.8,286047002.6,Y
1639093935.7,286046999.3,P
1639093955.5,286046998.7,N
1639093975.3,286046998.2,N
1639093995.2,286046998.6,N
1639094015.0,286046998.1,N
1639094015.9,286046998.1,N
1639094035.7,286047000.0,N
1639094055.6,286047001.0,N
1639094075.4,286047000.7,N
1639094095.3,286047001.0,N
1639094115.1,286047000.9,N
1639094116.0,286047000.9,N
1639094135.8,286047001.0,N
1639094155.7,286046998.2,N
1639094175.5,286046999.0,N
1639094195.3,286046998.7,N
1639094215.2,286047000.4,N
1639094235.0,286047000.8,N
1639094235.9,286047000.8,N
1639094255.8,286046998.6,N
1639094275.6,286047001.1,N
1639094295.4,286047001.1,N
1639094315.3,286047023.2,Y
1639094335.1,286047023.4,P
1639094355.9,286047018.5,N
1639094375.7,286047012.9,N
1639094395.5,286047011.4,N
